Location: Capvern
(43.1036°N, 0.3160°E)
Time: 18:26:31
(UTC+00:00)

BlueWalker 3 - Visible Passes

Search period start: 09 December 2022 00:00
Search period end: 19 December 2022 00:00
Orbit: 501 x 518 km, 53.2° (Epoch: 08 December)

Date Brightness Start Highest point End Pass type
(mag) Time Alt. Az. Time Alt. Az. Time Alt. Az.
09 Dec 2.8 17:07:48 10° NW 17:11:21 32° NNE 17:14:45 11° E visible
09 Dec 2.9 18:46:22 10° WNW 18:49:37 47° WSW 18:49:37 47° WSW visible
10 Dec 2.7 18:27:58 10° WNW 18:31:45 49° SW 18:32:47 38° S visible
11 Dec 2.9 18:09:34 10° WNW 18:13:19 46° SW 18:16:19 15° SSE visible
12 Dec 3.2 17:51:10 10° WNW 17:54:52 43° SW 17:58:33 10° SSE visible
13 Dec 3.4 17:32:45 10° WNW 17:36:25 40° SW 17:40:04 10° SSE visible
14 Dec 3.6 17:14:20 10° WNW 17:17:58 37° SW 17:21:34 10° SSE visible
15 Dec 3.9 16:55:55 10° WNW 16:59:31 35° SW 17:03:04 10° SSE visible
